Mt. Pocono, PA

1:34 PM EST on December 08, 2019 (GMT -0500)
Pocono Mountains Municipal

Weather History for KMPO - November, 2019

Change the Weather History Date:

Tuesday, November 19, 2019

  Actual Average Record
Temperature  
Mean Temperature 36 °F 37 °F  
Max Temperature 41 °F 44 °F 69 °F (1941)
Min Temperature 32 °F 31 °F 10 °F (1933)
Degree Days  
Heating Degree Days 28 28  
Month to date heating degree days 620 461  
Since 1 July heating degree days 1230 1249  
Cooling Degree Days 0 0  
Month to date cooling degree days 0 0  
Year to date cooling degree days 348 314  
Moisture  
Dew Point 32 °F    
Average Humidity 89    
Maximum Humidity 100    
Minimum Humidity 70    
Precipitation  
Precipitation 0.00 in 0.16 in 1.98 in (2003)
Month to date precipitation 0.41 2.72  
Year to date precipitation 44.76 43.02  
Sea Level Pressure  
Sea Level Pressure 29.76 in    
Wind  
Wind Speed 8 mph ()    
Max Wind Speed 15 mph    
Max Gust Speed 20 mph    
Visibility 8.8 miles    
Events      
T = Trace of Precipitation, MM = Missing Value Source: Averaged Metar Reports

Daily Weather History Graph

Daily Weather History Graph

Search for Another Location

Airport or City:

Astronomy

Nov. 19, 2019 Rise Set
Actual Time 6:53 AM EST 4:39 PM EST
Civil Twilight 6:23 AM EST 5:09 PM EST
Nautical Twilight 5:50 AM EST 5:42 PM EST
Astronomical Twilight 5:17 AM EST 6:15 PM EST
Moon 11:33 PM EST (11/19) 1:02 PM EST (11/19)
Length of Visible Light 10h 45m
Length of Day
9h 45m
Waning Gibbous, 52% of the Moon is Illuminated
Nov 19
Waning Gibbous
Nov 19
Last Quarter
Nov 26
New
Dec 4
First Quarter
Dec 12
Full

Hourly Weather History & Observations

Time (EST) Temp. Windchill Dew Point Humidity Pressure Visibility Wind Dir Wind Speed Gust Speed Precip Events Conditions
12:17 AM 34.0 °F 26.6 °F 34.0 °F 100% 29.66 in 1.0 mi West 9.2 mph - N/A   Mist
12:40 AM 34.0 °F 25.5 °F 34.0 °F 100% 29.66 in 0.8 mi West 11.5 mph - N/A   Mist
12:53 AM 34.0 °F 26.6 °F 34.0 °F 100% 29.70 in 3.0 mi West 9.2 mph - N/A   Overcast
1:53 AM 34.0 °F 27.2 °F 34.0 °F 100% 29.71 in 7.0 mi WNW 8.1 mph - N/A   Overcast
2:53 AM 34.0 °F 26.6 °F 34.0 °F 100% 29.71 in 7.0 mi West 9.2 mph - N/A   Overcast
3:17 AM 33.1 °F 26.1 °F 33.1 °F 100% 29.65 in 2.5 mi West 8.1 mph - N/A   Overcast
3:25 AM 33.1 °F 26.1 °F 33.1 °F 100% 29.65 in 4.0 mi West 8.1 mph - N/A   Overcast
3:53 AM 34.0 °F 26.6 °F 34.0 °F 100% 29.70 in 7.0 mi WNW 9.2 mph - N/A   Overcast
4:53 AM 34.0 °F 28.0 °F 34.0 °F 100% 29.71 in 10.0 mi WNW 6.9 mph - N/A   Overcast
5:00 AM 34.0 °F 28.8 °F 34.0 °F 100% 29.67 in 10.0 mi WNW 5.8 mph - N/A   Overcast
5:50 AM 33.8 °F 27.0 °F 33.8 °F 100% 29.68 in 10.0 mi WNW 8.1 mph - N/A   Overcast
5:53 AM 34.0 °F 28.0 °F 34.0 °F 100% 29.73 in 10.0 mi WNW 6.9 mph - N/A   Overcast
6:53 AM 34.0 °F 28.0 °F 34.0 °F 100% 29.75 in 10.0 mi West 6.9 mph - N/A   Overcast
7:25 AM 34.0 °F 27.2 °F 34.0 °F 100% 29.71 in 10.0 mi West 8.1 mph - N/A   Overcast
7:33 AM 34.0 °F 28.8 °F 34.0 °F 100% 29.71 in 10.0 mi WNW 5.8 mph - N/A   Overcast
7:43 AM 34.0 °F 28.0 °F 34.0 °F 100% 29.72 in 10.0 mi WNW 6.9 mph - N/A   Overcast
7:53 AM 34.0 °F 27.2 °F 34.0 °F 100% 29.77 in 10.0 mi WNW 8.1 mph - N/A   Overcast
8:53 AM 35.1 °F 27.4 °F 33.1 °F 92% 29.77 in 10.0 mi WNW 10.4 mph - N/A   Overcast
9:09 AM 35.1 °F 26.4 °F 33.1 °F 92% 29.73 in 10.0 mi West 12.7 mph - N/A   Overcast
9:48 AM 35.6 °F 27.5 °F 33.8 °F 93% 29.74 in 10.0 mi WNW 11.5 mph - N/A   Overcast
9:53 AM 36.0 °F 27.5 °F 33.1 °F 89% 29.79 in 10.0 mi WNW 12.7 mph - N/A   Overcast
10:53 AM 36.0 °F 28.5 °F 32.0 °F 86% 29.80 in 10.0 mi West 10.4 mph - N/A   Overcast
11:53 AM 37.9 °F 30.0 °F 32.0 °F 79% 29.78 in 10.0 mi WNW 12.7 mph - N/A   Overcast
12:53 PM 37.9 °F 31.5 °F 30.0 °F 73% 29.77 in 10.0 mi West 9.2 mph - N/A   Mostly Cloudy
1:04 PM 37.9 °F 32.7 °F 30.0 °F 73% 29.72 in 10.0 mi WNW 6.9 mph - N/A   Scattered Clouds
1:12 PM 39.9 °F 32.9 °F 30.9 °F 70% 29.72 in 10.0 mi West 11.5 mph - N/A   Mostly Cloudy
1:36 PM 39.0 °F 33.4 °F 30.0 °F 70% 29.72 in 10.0 mi NW 8.1 mph - N/A   Scattered Clouds
1:53 PM 37.9 °F 32.1 °F 30.0 °F 73% 29.78 in 10.0 mi West 8.1 mph - N/A   Scattered Clouds
2:13 PM 39.0 °F 32.8 °F 30.9 °F 73% 29.74 in 10.0 mi West 9.2 mph - N/A   Mostly Cloudy
2:53 PM 37.9 °F 30.5 °F 30.9 °F 76% 29.79 in 10.0 mi WNW 11.5 mph - N/A   Overcast
3:53 PM 37.9 °F 30.9 °F 30.9 °F 76% 29.81 in 10.0 mi WNW 10.4 mph - N/A   Overcast
4:53 PM 37.0 °F 28.9 °F 30.9 °F 79% 29.83 in 10.0 mi WNW 12.7 mph - N/A   Overcast
5:53 PM 37.0 °F 31.6 °F 30.9 °F 79% 29.85 in 10.0 mi NW 6.9 mph - N/A   Overcast
6:53 PM 37.0 °F 29.8 °F 30.9 °F 79% 29.86 in 10.0 mi NW 10.4 mph - N/A   Overcast
7:53 PM 35.1 °F 28.6 °F 30.0 °F 82% 29.86 in 10.0 mi NNW 8.1 mph - N/A   Overcast
8:31 PM 34.0 °F 27.2 °F 28.9 °F 82% 29.82 in 10.0 mi NW 8.1 mph - N/A   Scattered Clouds
8:53 PM 34.0 °F 27.2 °F 28.9 °F 82% 29.87 in 10.0 mi NNW 8.1 mph - N/A   Clear
9:53 PM 33.1 °F 24.9 °F 28.0 °F 82% 29.87 in 10.0 mi NW 10.4 mph - N/A   Clear
10:53 PM 33.1 °F 24.9 °F 28.0 °F 82% 29.87 in 10.0 mi NW 10.4 mph - N/A   Clear
11:53 PM 32.0 °F 23.6 °F 28.9 °F 88% 29.86 in 10.0 mi NNW 10.4 mph - N/A   Clear